Location: Archemont
(49.1579°N, 1.7598°E)
Time: 20:30:02
(UTC+00:00)

S-56A Canister/Altair - Pass Details

Date: 25 April 2024
Orbit: 638 x 2488 km, 38.9° (Epoch: 20 May)

Event Time Altitude Azimuth Distance (km) Brightness Sun altitude
Rises 16:09:57 0° 236° (SW) 2,996 11.6 26.6°
Reaches altitude 10° 16:12:22 10° 223° (SW) 2,177 10.8 26.2°
Maximum altitude 16:16:32 27° 165° (SSE) 1,531 9.2 25.5°
Drops below altitude 10° 16:21:49 10° 110° (ESE) 2,817 10.0 24.7°
Sets 16:25:24 0° 100° (E) 4,082 10.7 24.1°
